Showing default

COSMOS 397, 4964

Orbit data source: Space-Track

COSMOS 397, 4964 is a payload satellite owned by PKO (CIS) in LEO that was launched on Thu, 25 Feb 1971 UTC via a TSIKLON-2 launch vehicle from the Tyuratam Missile And Space Complex (TTMTR). Payload-class satellites include a variety of spacecraft equipped with specific instruments for various scientific and technological missions. These include communications satellites like Starlink; space stations such as the ISS; scientific satellites like the Hubble; Earth observation satellites from companies like Planet Labs, Umbra, and HawkEye 360; GPS; miniature CubeSats for education and research; and military/defense satellites.

Loading next visibility...
Identifier
4964, 1971-015A
Orbit
LEO
Country
Flag of CISCIS
Related business
Manufacturer
TSKBM/KB1
Mission
Spacecraft
Bus & Motor
IS, Unknown motor
Mass
1,400 kg wet, ~1,400 kg dry
Launch date (UTC)
1971-02-25 (55 years ago)
Launch vehicle
TSIKLON-2
Launch site
Tyuratam Missile And Space Complex (TTMTR)
Object type
Payload
Rocket body
Debris
Shape & HBR
Unknown
Radar Cross Section
Large (>1 m²)

Expand to show TLE details & history
Last TLE update: 21 hours ago

TLE from 21 hours ago
0 COSMOS 397
1 04964U 71015A   25349.86767349  .00000029  00000-0  50065-4 0  9991
2 04964  65.7215 144.2061 1032142 309.3062  42.0724 12.74899891644882
Epoch: 2025-12-15T20:49Z
TLE epoch observation values (Epoch: 2025-12-15T20:49:26.989Z)
Latitude
0.00003°
Longitude
107.08358°
Altitude
812.518 km
Speed
7.708 km/s
True Right ascension
09h 36m 49s
True Declination
0° 00' 00"
Sunlit
Object was in daylight at epoch
Visualization orbit readout
Latitude
Unknown
Longitude
Unknown
Altitude
Unknown
Speed
Unknown
Apparent Right ascension
Unknown
Apparent Declination
Unknown
Sunlit
N/A
Visualization observer readout
Local Sidereal Time
16:55:52
Azimuth
Unknown
Elevation
Unknown
Doppler factor
Unknown
Orbital elements
Apogee altitude
2,159.374 km
Perigee altitude
561.874 km
Semi-major axis
7,738.761 km
Eccentricity
0.10321
Inclination
65.7215°
RAAN
144.2061°
Arg. of periapsis
309.3062°
True anomaly
50.79876°
Mean anomaly
42.0724°
Eccentric anomaly
46.35151°
Mean motion
3.18813 °/min
Orbital period
112.92 mins
BSTAR
0.000050065
Loading maneuver chart data...
Computing Atmospheric mass density...
Loading historical data...
Loading historical data...
Loading historical data...
Loading historical data...
Loading historical data...
Loading historical data...
Loading historical data...

Documentation

Showing up to 5 results
|